Miscellaneous Local Product
Issued by NWS North Platte, NE

Home | Current Version | Previous Version | Text Only | Print | Product List | Glossary On
Versions: 1 2 3 4 5 6 7 8 9 10 11 12 13 14 15 16 17 18 19 20 21 22 23 24 25 26 27 28 29 30 31 32 33 34 35 36 37 38 39 40 41 42 43 44 45 46 47 48 49 50
000
AXUS43 KLBF 191810
MISLBF


WESTERN AND NORTH CENTRAL NEBRASKA HOURLY WEATHER ROUNDUP
NATIONAL WEATHER SERVICE NORTH PLATTE NE
100 PM CDT THU APR 19 2018

NOTE: "FAIR" INDICATES FEW OR NO CLOUDS BELOW 12,000 FEET WITH NO
SIGNIFICANT WEATHER AND/OR OBSTRUCTIONS TO VISIBILITY.

NOTE: STATIONS NOT REPORTING VARIABLES SUCH AS SKY/WEATHER OR
PRESSURE ARE PROVIDED BY RAWS AND APRS NETWORKS AND ARE NOT UNDER
NATIONAL WEATHER SERVICE QUALITY CONTROL.

...OBSERVATIONS IN AND NEAR THE EASTERN PANHANDLE OF NEBRASKA...

CITY           SKY/WX    TMP DP  RH WIND       PRES   REMARKS
PINE RIDGE     PTSUNNY   55  31  39 S12G23    30.31F
CHADRON        PTSUNNY   56  33  42 S18       30.28F
ALLIANCE       PTSUNNY   55  33  43 S21G26    30.29F
SIDNEY         MOSUNNY   55  28  35 S17G32    30.28F
CRESCENT LAKE    N/A     53  33  46 S12G21      N/A
$$

...OBSERVATIONS IN NORTHERN NEBRASKA AND FAR SOUTHERN SOUTH DAKOTA...

CITY           SKY/WX    TMP DP  RH WIND       PRES   REMARKS
WINNER         FAIR      43  29  57 S12       30.43F
VALENTINE      SUNNY     50  30  46 SE9       30.39F
AINSWORTH      SUNNY     47  33  59 SE9       30.41F
O`NEILL        SUNNY     48  26  42 E10       30.47S
THEDFORD       SUNNY     51  30  44 SE12      30.40F
BROKEN BOW     SUNNY     49  32  52 E10       30.42F
ORD            SUNNY     48  22  35 E8        30.45F
ALBION         SUNNY     49  22  35 E6        30.46F
VALENTINE NWR    N/A     47  30  51 SE7         N/A
HALSEY           N/A     49  26  41 SE7         N/A
BUTTE            N/A     42  33  69 E7          N/A
CHAMBERS         N/A     52  29  40 CALM        N/A
EWING            N/A     47  30  51 E6          N/A
$$

...OBSERVATIONS IN SOUTHWEST NEBRASKA AND FAR NORTHEAST COLORADO...

CITY           SKY/WX    TMP DP  RH WIND       PRES   REMARKS
WRAY           FAIR      59  28  31 SE21G30   30.32F
HOLYOKE        FAIR      59  30  33 SE23      30.32F
IMPERIAL       SUNNY     55  29  36 SE15G31   30.35F
OGALLALA       SUNNY     56  31  39 SE14      30.34F
NORTH PLATTE   SUNNY     54  32  43 SE10G17   30.40F
MCCOOK         SUNNY     53  29  39 SE12G21   30.40F
LEXINGTON      SUNNY     50  31  49 E6        30.43F
STAPLETON        N/A     50  33  51 CALM        N/A
GOTHENBURG       N/A     48  26  41 SE3         N/A
CALLAWAY         N/A     49  33  53 CALM        N/A
$$

...OBSERVATIONS IN CENTRAL LINCOLN COUNTY AREA...

CITY           SKY/WX    TMP DP  RH WIND       PRES   REMARKS
N.P. AIRPORT   SUNNY     54  32  43 SE10G17   30.40F
N.P. DOWNTOWN    N/A     52  33  48 CALM        N/A
N.P. HILLCREST   N/A     51  32  48 SE8G15      N/A
$$

...OBSERVATIONS ACROSS THE ROCKIES AND WESTERN HIGH PLAINS...

CITY           SKY/WX    TMP DP  RH WIND       PRES   REMARKS
RAPID CITY     MOSUNNY   53  30  41 S14G24    30.30F
SCOTTSBLUFF    PTSUNNY   56  30  37 SE24G30   30.25F
CHEYENNE       MOSUNNY   49  20  31 S21G31    30.19F
DENVER         CLOUDY    57  16  20 SE17G30   30.17F
BERTHOUD PASS  FAIR      28  19  69 SE15G29   30.29F WCI  17
MONARCH PASS   SUNNY     36   5  27 SW17G36   30.41S WCI  25
ASPEN          SUNNY     59   2  10 SW16G25   30.06F
STEAMBOAT      FAIR      59  11  15 SE8G20    30.02F
LARAMIE        SUNNY     50  12  21 SE37      30.10F
CASPER         MOSUNNY   51  23  33 E6        30.11F
$$

...OBSERVATIONS ACROSS THE NORTHERN PLAINS...

CITY           SKY/WX    TMP DP  RH WIND       PRES   REMARKS
BISMARCK       SUNNY     52  25  35 CALM      30.41F
FARGO          FAIR      52  29  41 W7        30.43S
PIERRE         SUNNY     49  30  48 SE8       30.40F
SIOUX FALLS    MOSUNNY   43  26  51 NW5       30.50S
$$

...OBSERVATIONS ACROSS THE CENTRAL AND SOUTHERN PLAINS...

CITY           SKY/WX    TMP DP  RH WIND       PRES   REMARKS
OMAHA          MOSUNNY   52  29  41 VRB3      30.47F
GRAND ISLAND   SUNNY     48  30  49 NE6       30.47S
KANSAS CITY    MOSUNNY   53  30  41 N7        30.45F
WICHITA        MOSUNNY   54  28  36 N20       30.44F
DODGE CITY     SUNNY     57  30  35 SE8       30.41F
OKLAHOMA CITY  PTSUNNY   59  29  31 N12       30.42F
DALLAS         PTSUNNY   67  33  28 N13G22    30.36S
AMARILLO       SUNNY     62  22  21 SE18G25   30.38F
$$




USA.gov is the U.S. government's official web portal to all federal, state and local government web resources and services.